| time (UTC) | temp F | wind direction | speed MPH | gust MPH | rain 1hr in | rain 24hr in | rain mn in | humidity % | barometer mb |
| 20260904141023 | 87 | 0 | 0.0 | 3.0 | 0.00 | 0.00 | 0.00 | 54 | 1018.9 |
| 20260904140526 | 87 | 306 | 0.0 | 1.0 | 0.00 | 0.00 | 0.00 | 55 | 1018.9 |
| 20260904140046 | 86 | 0 | 0.0 | 3.0 | 0.00 | 0.00 | 0.00 | 56 | 1018.9 |
| 20260904135524 | 85 | 0 | 0.0 | 3.0 | 0.00 | 0.00 | 0.00 | 57 | 1018.9 |
| 20260904135024 | 85 | 307 | 1.0 | 3.0 | 0.00 | 0.00 | 0.00 | 56 | 1018.9 |
| 20260904134544 | 85 | 344 | 0.0 | 2.0 | 0.00 | 0.00 | 0.00 | 56 | 1019.1 |
| 20260904134027 | 85 | 0 | 0.0 | 0.0 | 0.00 | 0.00 | 0.00 | 57 | 1019.0 |
| 20260904133529 | 84 | 305 | 0.0 | 0.0 | 0.00 | 0.00 | 0.00 | 58 | 1019.0 |
| 20260904133049 | 84 | 0 | 0.0 | 0.0 | 0.00 | 0.00 | 0.00 | 58 | 1019.0 |
| 20260904132525 | 83 | 0 | 0.0 | 0.0 | 0.00 | 0.00 | 0.00 | 60 | 1019.1 |
| 20260904132025 | 81 | 304 | 0.0 | 1.0 | 0.00 | 0.00 | 0.00 | 61 | 1019.0 |
| 20260904131557 | 80 | 0 | 0.0 | 1.0 | 0.00 | 0.00 | 0.00 | 63 | 1019.0 |
| 20260904131025 | 79 | 0 | 0.0 | 1.0 | 0.00 | 0.00 | 0.00 | 64 | 1018.9 |
| 20260904130527 | 78 | 0 | 0.0 | 1.0 | 0.00 | 0.00 | 0.00 | 66 | 1018.9 |
| 20260904130045 | 77 | 0 | 0.0 | 1.0 | 0.00 | 0.00 | 0.00 | 67 | 1018.9 |
| 20260904125531 | 77 | 0 | 0.0 | 1.0 | 0.00 | 0.00 | 0.00 | 68 | 1018.9 |
| 20260904125026 | 76 | 0 | 0.0 | 1.0 | 0.00 | 0.00 | 0.00 | 68 | 1018.9 |
| 20260904124546 | 76 | 300 | 0.0 | 1.0 | 0.00 | 0.00 | 0.00 | 68 | 1018.8 |
| 20260904124024 | 76 | 0 | 0.0 | 1.0 | 0.00 | 0.00 | 0.00 | 68 | 1018.9 |
| 20260904123524 | 75 | 300 | 0.0 | 1.0 | 0.00 | 0.00 | 0.00 | 68 | 1018.8 |
| 20260904123045 | 75 | 0 | 0.0 | 1.0 | 0.00 | 0.00 | 0.00 | 68 | 1018.8 |
| 20260904122527 | 75 | 0 | 0.0 | 1.0 | 0.00 | 0.00 | 0.00 | 68 | 1018.9 |
| 20260904122025 | 75 | 0 | 0.0 | 0.0 | 0.00 | 0.00 | 0.00 | 69 | 1018.9 |
| 20260904121549 | 75 | 0 | 0.0 | 0.0 | 0.00 | 0.00 | 0.00 | 70 | 1018.9 |
| 20260904121024 | 74 | 0 | 0.0 | 0.0 | 0.00 | 0.00 | 0.00 | 71 | 1018.9 |
| 20260904120526 | 74 | 0 | 0.0 | 0.0 | 0.00 | 0.00 | 0.00 | 72 | 1018.9 |
| 20260904120052 | 74 | 0 | 0.0 | 0.0 | 0.00 | 0.00 | 0.00 | 72 | 1018.9 |
| 20260904115525 | 73 | 0 | 0.0 | 0.0 | 0.00 | 0.00 | 0.00 | 72 | 1018.9 |
| 20260904115025 | 73 | 0 | 0.0 | 0.0 | 0.00 | 0.00 | 0.00 | 72 | 1018.9 |
| 20260904114549 | 73 | 0 | 0.0 | 0.0 | 0.00 | 0.00 | 0.00 | 72 | 1018.9 |
| 20260904114026 | 73 | 0 | 0.0 | 0.0 | 0.00 | 0.00 | 0.00 | 72 | 1018.8 |
| 20260904113526 | 73 | 0 | 0.0 | 0.0 | 0.00 | 0.00 | 0.00 | 72 | 1018.8 |
| 20260904113046 | 73 | 0 | 0.0 | 0.0 | 0.00 | 0.00 | 0.00 | 72 | 1018.8 |
| 20260904112524 | 73 | 0 | 0.0 | 0.0 | 0.00 | 0.00 | 0.00 | 72 | 1018.8 |
| 20260904112024 | 73 | 0 | 0.0 | 0.0 | 0.00 | 0.00 | 0.00 | 72 | 1018.8 |
| 20260904111549 | 73 | 0 | 0.0 | 0.0 | 0.00 | 0.00 | 0.00 | 71 | 1018.7 |
| 20260904111025 | 73 | 0 | 0.0 | 0.0 | 0.00 | 0.00 | 0.00 | 71 | 1018.7 |
| 20260904110526 | 73 | 0 | 0.0 | 0.0 | 0.00 | 0.00 | 0.00 | 71 | 1018.6 |
| 20260904110046 | 73 | 0 | 0.0 | 0.0 | 0.00 | 0.00 | 0.00 | 70 | 1018.6 |
| 20260904105527 | 73 | 0 | 0.0 | 0.0 | 0.00 | 0.00 | 0.00 | 70 | 1018.5 |
| 20260904105025 | 73 | 0 | 0.0 | 0.0 | 0.00 | 0.00 | 0.00 | 70 | 1018.3 |
| 20260904104554 | 73 | 0 | 0.0 | 0.0 | 0.00 | 0.00 | 0.00 | 70 | 1018.2 |
| 20260904104026 | 73 | 0 | 0.0 | 0.0 | 0.00 | 0.00 | 0.00 | 71 | 1018.2 |
| 20260904103523 | 73 | 0 | 0.0 | 0.0 | 0.00 | 0.00 | 0.00 | 71 | 1018.2 |
| 20260904103056 | 73 | 0 | 0.0 | 0.0 | 0.00 | 0.00 | 0.00 | 70 | 1018.2 |
| 20260904102525 | 73 | 0 | 0.0 | 0.0 | 0.00 | 0.00 | 0.00 | 70 | 1018.2 |
| 20260904102021 | 73 | 0 | 0.0 | 0.0 | 0.00 | 0.00 | 0.00 | 70 | 1018.2 |
| 20260904101543 | 73 | 0 | 0.0 | 0.0 | 0.00 | 0.00 | 0.00 | 70 | 1018.1 |
| 20260904101026 | 73 | 0 | 0.0 | 0.0 | 0.00 | 0.00 | 0.00 | 69 | 1018.1 |
| 20260904100525 | 73 | 0 | 0.0 | 0.0 | 0.00 | 0.00 | 0.00 | 69 | 1018.0 |
| 20260904100046 | 73 | 0 | 0.0 | 0.0 | 0.00 | 0.00 | 0.00 | 69 | 1018.0 |
| 20260904095526 | 73 | 0 | 0.0 | 0.0 | 0.00 | 0.00 | 0.00 | 69 | 1018.0 |
| 20260904095024 | 74 | 0 | 0.0 | 0.0 | 0.00 | 0.00 | 0.00 | 69 | 1018.0 |
| 20260904094547 | 74 | 0 | 0.0 | 0.0 | 0.00 | 0.00 | 0.00 | 69 | 1018.0 |
| 20260904094025 | 74 | 0 | 0.0 | 0.0 | 0.00 | 0.00 | 0.00 | 69 | 1018.0 |
| 20260904093526 | 74 | 0 | 0.0 | 0.0 | 0.00 | 0.00 | 0.00 | 69 | 1017.9 |
| 20260904093044 | 74 | 0 | 0.0 | 0.0 | 0.00 | 0.00 | 0.00 | 69 | 1017.8 |
| 20260904092524 | 74 | 0 | 0.0 | 0.0 | 0.00 | 0.00 | 0.00 | 68 | 1017.9 |
| 20260904092021 | 74 | 0 | 0.0 | 0.0 | 0.00 | 0.00 | 0.00 | 68 | 1017.8 |
| 20260904091547 | 74 | 0 | 0.0 | 0.0 | 0.00 | 0.00 | 0.00 | 68 | 1017.8 |
| 20260904091023 | 74 | 0 | 0.0 | 0.0 | 0.00 | 0.00 | 0.00 | 68 | 1017.7 |
| 20260904090525 | 74 | 0 | 0.0 | 0.0 | 0.00 | 0.00 | 0.00 | 69 | 1017.6 |
| 20260904090048 | 74 | 0 | 0.0 | 0.0 | 0.00 | 0.00 | 0.00 | 69 | 1017.6 |
| 20260904085524 | 74 | 0 | 0.0 | 0.0 | 0.00 | 0.00 | 0.00 | 69 | 1017.6 |
| 20260904085026 | 74 | 0 | 0.0 | 0.0 | 0.00 | 0.00 | 0.00 | 69 | 1017.5 |
| 20260904084546 | 74 | 0 | 0.0 | 0.0 | 0.00 | 0.00 | 0.00 | 69 | 1017.4 |
| 20260904084023 | 74 | 0 | 0.0 | 0.0 | 0.00 | 0.00 | 0.00 | 69 | 1017.4 |
| 20260904083523 | 74 | 0 | 0.0 | 0.0 | 0.00 | 0.00 | 0.00 | 69 | 1017.4 |
| 20260904083103 | 74 | 0 | 0.0 | 0.0 | 0.00 | 0.00 | 0.00 | 69 | 1017.5 |
| 20260904082524 | 74 | 0 | 0.0 | 0.0 | 0.00 | 0.00 | 0.00 | 69 | 1017.6 |
| 20260904082024 | 74 | 0 | 0.0 | 0.0 | 0.00 | 0.00 | 0.00 | 68 | 1017.6 |
| 20260904081550 | 75 | 0 | 0.0 | 0.0 | 0.00 | 0.00 | 0.00 | 68 | 1017.6 |
| 20260904081027 | 75 | 0 | 0.0 | 0.0 | 0.00 | 0.00 | 0.00 | 68 | 1017.5 |
| 20260904080525 | 75 | 0 | 0.0 | 0.0 | 0.00 | 0.00 | 0.00 | 67 | 1017.5 |
| 20260904080046 | 75 | 0 | 0.0 | 0.0 | 0.00 | 0.00 | 0.00 | 67 | 1017.5 |
| 20260904075525 | 75 | 0 | 0.0 | 0.0 | 0.00 | 0.00 | 0.00 | 67 | 1017.4 |
| 20260904075029 | 75 | 0 | 0.0 | 0.0 | 0.00 | 0.00 | 0.00 | 67 | 1017.6 |
| 20260904074601 | 75 | 0 | 0.0 | 0.0 | 0.00 | 0.00 | 0.00 | 66 | 1017.6 |
| 20260904074023 | 75 | 0 | 0.0 | 0.0 | 0.00 | 0.00 | 0.00 | 66 | 1017.6 |
| 20260904073524 | 76 | 0 | 0.0 | 0.0 | 0.00 | 0.00 | 0.00 | 66 | 1017.7 |
| 20260904073043 | 76 | 0 | 0.0 | 0.0 | 0.00 | 0.00 | 0.00 | 66 | 1017.6 |
| 20260904072524 | 76 | 0 | 0.0 | 0.0 | 0.00 | 0.00 | 0.00 | 65 | 1017.6 |
| 20260904072025 | 76 | 0 | 0.0 | 0.0 | 0.00 | 0.00 | 0.00 | 65 | 1017.7 |
| 20260904071548 | 76 | 0 | 0.0 | 0.0 | 0.00 | 0.00 | 0.00 | 65 | 1017.6 |
| 20260904071025 | 76 | 0 | 0.0 | 0.0 | 0.00 | 0.00 | 0.00 | 65 | 1017.7 |
| 20260904070525 | 76 | 0 | 0.0 | 0.0 | 0.00 | 0.00 | 0.00 | 65 | 1017.7 |
| 20260904070056 | 76 | 0 | 0.0 | 0.0 | 0.00 | 0.00 | 0.00 | 64 | 1017.7 |
| 20260904065528 | 77 | 0 | 0.0 | 0.0 | 0.00 | 0.00 | 0.00 | 64 | 1017.7 |
| 20260904065024 | 77 | 0 | 0.0 | 0.0 | 0.00 | 0.00 | 0.00 | 64 | 1017.7 |
| 20260904064546 | 77 | 0 | 0.0 | 0.0 | 0.00 | 0.00 | 0.00 | 64 | 1017.8 |
| 20260904064025 | 77 | 0 | 0.0 | 0.0 | 0.00 | 0.00 | 0.00 | 64 | 1017.8 |
| 20260904063524 | 77 | 0 | 0.0 | 0.0 | 0.00 | 0.00 | 0.00 | 64 | 1017.8 |
| 20260904063047 | 77 | 0 | 0.0 | 0.0 | 0.00 | 0.00 | 0.00 | 64 | 1017.8 |
| 20260904062529 | 77 | 0 | 0.0 | 0.0 | 0.00 | 0.00 | 0.00 | 64 | 1018.0 |
| 20260904062025 | 77 | 0 | 0.0 | 0.0 | 0.00 | 0.00 | 0.00 | 64 | 1018.0 |
| 20260904061547 | 77 | 0 | 0.0 | 0.0 | 0.00 | 0.00 | 0.00 | 64 | 1018.0 |
| 20260904061028 | 77 | 0 | 0.0 | 0.0 | 0.00 | 0.00 | 0.00 | 64 | 1018.0 |
| 20260904060526 | 77 | 0 | 0.0 | 0.0 | 0.00 | 0.00 | 0.00 | 64 | 1018.1 |
| 20260904060048 | 77 | 0 | 0.0 | 0.0 | 0.00 | 0.00 | 0.00 | 64 | 1018.2 |
| 20260904055525 | 77 | 0 | 0.0 | 0.0 | 0.00 | 0.00 | 0.00 | 64 | 1018.2 |
| 20260904055026 | 78 | 0 | 0.0 | 0.0 | 0.00 | 0.00 | 0.00 | 64 | 1018.3 |
| 20260904054544 | 78 | 0 | 0.0 | 0.0 | 0.00 | 0.00 | 0.00 | 64 | 1018.3 |
| 20260904054023 | 78 | 0 | 0.0 | 0.0 | 0.00 | 0.00 | 0.00 | 64 | 1018.3 |
| 20260904053522 | 78 | 0 | 0.0 | 0.0 | 0.00 | 0.00 | 0.00 | 64 | 1018.3 |
| 20260904053050 | 78 | 0 | 0.0 | 0.0 | 0.00 | 0.00 | 0.00 | 64 | 1018.2 |
| 20260904052525 | 78 | 0 | 0.0 | 0.0 | 0.00 | 0.00 | 0.00 | 64 | 1018.3 |
| 20260904052025 | 78 | 0 | 0.0 | 0.0 | 0.00 | 0.00 | 0.00 | 63 | 1018.3 |
| 20260904051547 | 78 | 0 | 0.0 | 0.0 | 0.00 | 0.00 | 0.00 | 63 | 1018.3 |
| 20260904051025 | 78 | 0 | 0.0 | 0.0 | 0.00 | 0.00 | 0.00 | 63 | 1018.4 |
| 20260904050529 | 79 | 0 | 0.0 | 0.0 | 0.00 | 0.00 | 0.00 | 63 | 1018.4 |
| 20260904050049 | 79 | 0 | 0.0 | 0.0 | 0.00 | 0.00 | 0.00 | 62 | 1018.4 |
| 20260904045524 | 79 | 0 | 0.0 | 0.0 | 0.00 | 0.00 | 0.00 | 62 | 1018.4 |
| 20260904045026 | 79 | 0 | 0.0 | 0.0 | 0.00 | 0.00 | 0.00 | 61 | 1018.5 |
| 20260904044544 | 79 | 0 | 0.0 | 0.0 | 0.00 | 0.00 | 0.00 | 61 | 1018.5 |
| 20260904044022 | 80 | 0 | 0.0 | 0.0 | 0.00 | 0.00 | 0.00 | 61 | 1018.5 |
| 20260904043529 | 80 | 0 | 0.0 | 0.0 | 0.00 | 0.00 | 0.00 | 60 | 1018.6 |
| 20260904043054 | 79 | 0 | 0.0 | 0.0 | 0.00 | 0.00 | 0.00 | 61 | 1018.5 |
| 20260904042524 | 79 | 0 | 0.0 | 0.0 | 0.00 | 0.00 | 0.00 | 61 | 1018.5 |
| 20260904042025 | 79 | 0 | 0.0 | 0.0 | 0.00 | 0.00 | 0.00 | 61 | 1018.5 |
| 20260904041555 | 79 | 0 | 0.0 | 0.0 | 0.00 | 0.00 | 0.00 | 62 | 1018.5 |
| 20260904041023 | 79 | 0 | 0.0 | 0.0 | 0.00 | 0.00 | 0.00 | 62 | 1018.6 |
| 20260904040525 | 79 | 0 | 0.0 | 0.0 | 0.00 | 0.00 | 0.00 | 62 | 1018.6 |
| 20260904040103 | 79 | 0 | 0.0 | 1.0 | 0.00 | 0.00 | 0.00 | 62 | 1018.5 |
| 20260904035524 | 79 | 0 | 0.0 | 1.0 | 0.00 | 0.00 | 0.00 | 62 | 1018.6 |
| 20260904035026 | 80 | 0 | 0.0 | 1.0 | 0.00 | 0.00 | 0.00 | 62 | 1018.7 |
| 20260904034544 | 80 | 0 | 0.0 | 1.0 | 0.00 | 0.00 | 0.00 | 62 | 1018.6 |
| 20260904034024 | 80 | 0 | 0.0 | 0.0 | 0.00 | 0.00 | 0.00 | 61 | 1018.6 |
| 20260904033525 | 80 | 0 | 0.0 | 0.0 | 0.00 | 0.00 | 0.00 | 61 | 1018.7 |
| 20260904033048 | 80 | 0 | 0.0 | 0.0 | 0.00 | 0.00 | 0.00 | 61 | 1018.7 |
| 20260904032525 | 80 | 0 | 0.0 | 1.0 | 0.00 | 0.00 | 0.00 | 61 | 1018.7 |
| 20260904032025 | 80 | 0 | 0.0 | 1.0 | 0.00 | 0.00 | 0.00 | 61 | 1018.6 |
| 20260904031550 | 81 | 0 | 0.0 | 1.0 | 0.00 | 0.00 | 0.00 | 60 | 1018.6 |
| 20260904031024 | 81 | 0 | 0.0 | 1.0 | 0.00 | 0.00 | 0.00 | 60 | 1018.6 |
| 20260904030525 | 81 | 0 | 0.0 | 0.0 | 0.00 | 0.00 | 0.00 | 59 | 1018.6 |
| 20260904030045 | 81 | 0 | 0.0 | 0.0 | 0.00 | 0.00 | 0.00 | 59 | 1018.6 |
| 20260904025523 | 81 | 0 | 0.0 | 0.0 | 0.00 | 0.00 | 0.00 | 59 | 1018.7 |
| 20260904025024 | 82 | 0 | 0.0 | 0.0 | 0.00 | 0.00 | 0.00 | 59 | 1018.6 |
| 20260904024542 | 82 | 0 | 0.0 | 0.0 | 0.00 | 0.00 | 0.00 | 58 | 1018.7 |
| 20260904024023 | 82 | 0 | 0.0 | 0.0 | 0.00 | 0.00 | 0.00 | 58 | 1018.6 |
| 20260904023525 | 82 | 0 | 0.0 | 0.0 | 0.00 | 0.00 | 0.00 | 58 | 1018.6 |
| 20260904023051 | 82 | 0 | 0.0 | 0.0 | 0.00 | 0.00 | 0.00 | 58 | 1018.6 |
| 20260904022525 | 82 | 0 | 0.0 | 0.0 | 0.00 | 0.00 | 0.00 | 58 | 1018.6 |
| 20260904022028 | 82 | 0 | 0.0 | 0.0 | 0.00 | 0.00 | 0.00 | 57 | 1018.4 |
| 20260904021546 | 82 | 0 | 0.0 | 0.0 | 0.00 | 0.00 | 0.00 | 57 | 1018.4 |
| 20260904021028 | 82 | 0 | 0.0 | 0.0 | 0.00 | 0.00 | 0.00 | 57 | 1018.4 |
| 20260904020528 | 82 | 0 | 0.0 | 0.0 | 0.00 | 0.00 | 0.00 | 57 | 1018.3 |
| 20260904020045 | 83 | 0 | 0.0 | 0.0 | 0.00 | 0.00 | 0.00 | 56 | 1018.3 |
| 20260904015526 | 83 | 0 | 0.0 | 0.0 | 0.00 | 0.00 | 0.00 | 56 | 1018.2 |
| 20260904015027 | 83 | 0 | 0.0 | 0.0 | 0.00 | 0.00 | 0.00 | 56 | 1018.2 |
| 20260904014614 | 83 | 0 | 0.0 | 0.0 | 0.00 | 0.00 | 0.00 | 56 | 1018.2 |
| 20260904014023 | 83 | 0 | 0.0 | 0.0 | 0.00 | 0.00 | 0.00 | 56 | 1018.2 |
| 20260904013524 | 83 | 0 | 0.0 | 0.0 | 0.00 | 0.00 | 0.00 | 56 | 1018.1 |
| 20260904013050 | 83 | 0 | 0.0 | 0.0 | 0.00 | 0.00 | 0.00 | 56 | 1018.1 |
| 20260904012528 | 83 | 0 | 0.0 | 0.0 | 0.00 | 0.00 | 0.00 | 55 | 1018.1 |
| 20260904012028 | 84 | 0 | 0.0 | 0.0 | 0.00 | 0.00 | 0.00 | 55 | 1018.0 |
| 20260904011551 | 84 | 0 | 0.0 | 0.0 | 0.00 | 0.00 | 0.00 | 55 | 1017.9 |
| 20260904011025 | 84 | 0 | 0.0 | 0.0 | 0.00 | 0.00 | 0.00 | 54 | 1017.8 |
| 20260904010525 | 84 | 0 | 0.0 | 0.0 | 0.00 | 0.00 | 0.00 | 53 | 1017.8 |
| 20260904010050 | 85 | 0 | 0.0 | 0.0 | 0.00 | 0.00 | 0.00 | 53 | 1017.7 |
| 20260904005525 | 85 | 0 | 0.0 | 0.0 | 0.00 | 0.00 | 0.00 | 53 | 1017.4 |
| 20260904005025 | 85 | 0 | 0.0 | 0.0 | 0.00 | 0.00 | 0.00 | 52 | 1017.4 |
| 20260904004545 | 85 | 0 | 0.0 | 0.0 | 0.00 | 0.00 | 0.00 | 52 | 1017.4 |
| 20260904004024 | 86 | 0 | 0.0 | 0.0 | 0.00 | 0.00 | 0.00 | 51 | 1017.2 |
| 20260904003524 | 86 | 0 | 0.0 | 0.0 | 0.00 | 0.00 | 0.00 | 51 | 1017.1 |
| 20260904003046 | 86 | 0 | 0.0 | 0.0 | 0.00 | 0.00 | 0.00 | 50 | 1017.1 |
| 20260904002525 | 87 | 0 | 0.0 | 1.0 | 0.00 | 0.00 | 0.00 | 50 | 1017.0 |
| 20260904002026 | 87 | 0 | 0.0 | 1.0 | 0.00 | 0.00 | 0.00 | 50 | 1016.9 |
| 20260904001549 | 87 | 0 | 0.0 | 0.0 | 0.00 | 0.00 | 0.00 | 49 | 1016.8 |
| 20260904001025 | 87 | 0 | 0.0 | 1.0 | 0.00 | 0.00 | 0.00 | 49 | 1016.7 |
| 20260904000530 | 88 | 0 | 0.0 | 1.0 | 0.00 | 0.00 | 0.00 | 49 | 1016.7 |
| 20260904000045 | 88 | 0 | 0.0 | 1.0 | 0.00 | 0.00 | 0.00 | 48 | 1016.7 |
| 20260903235527 | 88 | 0 | 0.0 | 1.0 | 0.00 | 0.00 | 0.00 | 47 | 1016.6 |
| 20260903235027 | 89 | 0 | 0.0 | 1.0 | 0.00 | 0.00 | 0.00 | 47 | 1016.6 |
| 20260903234545 | 89 | 91 | 0.0 | 1.0 | 0.00 | 0.00 | 0.00 | 46 | 1016.6 |
| 20260903234024 | 89 | 91 | 0.0 | 1.0 | 0.00 | 0.00 | 0.00 | 46 | 1016.5 |
| 20260903233525 | 90 | 0 | 0.0 | 1.0 | 0.00 | 0.00 | 0.00 | 45 | 1016.6 |
| 20260903233104 | 90 | 0 | 0.0 | 1.0 | 0.00 | 0.00 | 0.00 | 45 | 1016.5 |
| 20260903232527 | 90 | 91 | 0.0 | 1.0 | 0.00 | 0.00 | 0.00 | 44 | 1016.4 |
| 20260903232024 | 91 | 91 | 0.0 | 1.0 | 0.00 | 0.00 | 0.00 | 44 | 1016.4 |
| 20260903231546 | 91 | 91 | 0.0 | 1.0 | 0.00 | 0.00 | 0.00 | 43 | 1016.4 |
| 20260903231029 | 91 | 0 | 0.0 | 2.0 | 0.00 | 0.00 | 0.00 | 42 | 1016.4 |
| 20260903230527 | 92 | 0 | 0.0 | 2.0 | 0.00 | 0.00 | 0.00 | 41 | 1016.4 |
| 20260903230053 | 92 | 91 | 1.0 | 2.0 | 0.00 | 0.00 | 0.00 | 41 | 1016.4 |
| 20260903225527 | 92 | 91 | 1.0 | 4.0 | 0.00 | 0.00 | 0.00 | 40 | 1016.5 |
| 20260903225028 | 93 | 91 | 0.0 | 4.0 | 0.00 | 0.00 | 0.00 | 40 | 1016.5 |
| 20260903224543 | 93 | 90 | 1.0 | 5.0 | 0.00 | 0.00 | 0.00 | 39 | 1016.6 |
| 20260903224024 | 93 | 84 | 2.0 | 5.0 | 0.00 | 0.00 | 0.00 | 38 | 1016.5 |
| 20260903223525 | 94 | 85 | 3.0 | 5.0 | 0.00 | 0.00 | 0.00 | 37 | 1016.5 |
| 20260903223108 | 94 | 103 | 2.0 | 6.0 | 0.00 | 0.00 | 0.00 | 38 | 1016.5 |
| 20260903222525 | 94 | 100 | 1.0 | 6.0 | 0.00 | 0.00 | 0.00 | 38 | 1016.5 |
| 20260903222025 | 94 | 79 | 2.0 | 6.0 | 0.00 | 0.00 | 0.00 | 37 | 1016.5 |
| 20260903221546 | 94 | 93 | 3.0 | 6.0 | 0.00 | 0.00 | 0.00 | 37 | 1016.5 |
| 20260903221025 | 95 | 94 | 2.0 | 6.0 | 0.00 | 0.00 | 0.00 | 36 | 1016.5 |
| 20260903220527 | 95 | 33 | 1.0 | 4.0 | 0.00 | 0.00 | 0.00 | 36 | 1016.5 |
| 20260903220109 | 95 | 40 | 1.0 | 5.0 | 0.00 | 0.00 | 0.00 | 36 | 1016.5 |
| 20260903215527 | 95 | 99 | 0.0 | 5.0 | 0.00 | 0.00 | 0.00 | 37 | 1016.4 |
| 20260903215023 | 95 | 96 | 1.0 | 3.0 | 0.00 | 0.00 | 0.00 | 36 | 1016.4 |
| 20260903214544 | 95 | 0 | 0.0 | 4.0 | 0.00 | 0.00 | 0.00 | 36 | 1016.5 |
| 20260903214027 | 95 | 92 | 0.0 | 8.0 | 0.00 | 0.00 | 0.00 | 37 | 1016.5 |
| 20260903213529 | 95 | 105 | 3.0 | 8.0 | 0.00 | 0.00 | 0.00 | 35 | 1016.4 |
| 20260903213049 | 95 | 91 | 1.0 | 5.0 | 0.00 | 0.00 | 0.00 | 37 | 1016.5 |
| 20260903212524 | 95 | 98 | 2.0 | 7.0 | 0.00 | 0.00 | 0.00 | 36 | 1016.4 |
| 20260903212025 | 95 | 86 | 3.0 | 7.0 | 0.00 | 0.00 | 0.00 | 36 | 1016.5 |
| 20260903211552 | 96 | 278 | 2.0 | 4.0 | 0.00 | 0.00 | 0.00 | 36 | 1016.5 |
| 20260903211025 | 96 | 94 | 0.0 | 2.0 | 0.00 | 0.00 | 0.00 | 36 | 1016.6 |
| 20260903210525 | 95 | 94 | 0.0 | 7.0 | 0.00 | 0.00 | 0.00 | 34 | 1016.7 |
| 20260903210049 | 95 | 0 | 1.0 | 7.0 | 0.00 | 0.00 | 0.00 | 35 | 1016.7 |
| 20260903205527 | 96 | 86 | 3.0 | 5.0 | 0.00 | 0.00 | 0.00 | 36 | 1016.7 |
| 20260903205024 | 95 | 115 | 1.0 | 4.0 | 0.00 | 0.00 | 0.00 | 36 | 1016.8 |
| 20260903204545 | 95 | 165 | 1.0 | 4.0 | 0.00 | 0.00 | 0.00 | 37 | 1016.7 |
| 20260903204029 | 95 | 110 | 0.0 | 4.0 | 0.00 | 0.00 | 0.00 | 36 | 1016.8 |
| 20260903203522 | 95 | 269 | 1.0 | 5.0 | 0.00 | 0.00 | 0.00 | 36 | 1016.8 |
| 20260903203055 | 95 | 139 | 2.0 | 5.0 | 0.00 | 0.00 | 0.00 | 37 | 1016.9 |
| 20260903202525 | 95 | 98 | 0.0 | 5.0 | 0.00 | 0.00 | 0.00 | 37 | 1017.1 |
| 20260903202026 | 94 | 101 | 2.0 | 5.0 | 0.00 | 0.00 | 0.00 | 38 | 1017.1 |
| 20260903201546 | 93 | 94 | 0.0 | 3.0 | 0.00 | 0.00 | 0.00 | 40 | 1017.2 |
| 20260903201028 | 93 | 89 | 1.0 | 4.0 | 0.00 | 0.00 | 0.00 | 38 | 1017.2 |
| 20260903200523 | 94 | 90 | 2.0 | 10.0 | 0.00 | 0.00 | 0.00 | 37 | 1017.3 |
| 20260903200043 | 95 | 91 | 2.0 | 10.0 | 0.00 | 0.00 | 0.00 | 36 | 1017.3 |
| 20260903195529 | 96 | 108 | 2.0 | 4.0 | 0.00 | 0.00 | 0.00 | 34 | 1017.3 |
| 20260903195027 | 97 | 298 | 1.0 | 3.0 | 0.00 | 0.00 | 0.00 | 34 | 1017.4 |
| 20260903194549 | 97 | 276 | 0.0 | 5.0 | 0.00 | 0.00 | 0.00 | 35 | 1017.4 |
| 20260903194028 | 97 | 79 | 1.0 | 5.0 | 0.00 | 0.00 | 0.00 | 35 | 1017.5 |
| 20260903193524 | 96 | 120 | 2.0 | 5.0 | 0.00 | 0.00 | 0.00 | 34 | 1017.6 |
| 20260903193048 | 97 | 96 | 1.0 | 4.0 | 0.00 | 0.00 | 0.00 | 34 | 1017.6 |
| 20260903192527 | 96 | 92 | 2.0 | 4.0 | 0.00 | 0.00 | 0.00 | 33 | 1017.6 |
| 20260903192024 | 96 | 97 | 0.0 | 4.0 | 0.00 | 0.00 | 0.00 | 39 | 1017.7 |
| 20260903191542 | 96 | 302 | 0.0 | 8.0 | 0.00 | 0.00 | 0.00 | 35 | 1017.8 |
| 20260903191025 | 97 | 89 | 3.0 | 8.0 | 0.00 | 0.00 | 0.00 | 34 | 1017.8 |
| 20260903190525 | 98 | 101 | 4.0 | 7.0 | 0.00 | 0.00 | 0.00 | 33 | 1017.8 |
| 20260903190047 | 97 | 110 | 2.0 | 11.0 | 0.00 | 0.00 | 0.00 | 36 | 1017.8 |
| 20260903185525 | 97 | 82 | 2.0 | 11.0 | 0.00 | 0.00 | 0.00 | 35 | 1017.9 |
| 20260903185025 | 98 | 97 | 2.0 | 4.0 | 0.00 | 0.00 | 0.00 | 34 | 1018.0 |
| 20260903184546 | 98 | 0 | 1.0 | 6.0 | 0.00 | 0.00 | 0.00 | 35 | 1018.1 |
| 20260903184030 | 98 | 103 | 1.0 | 6.0 | 0.00 | 0.00 | 0.00 | 32 | 1018.2 |
| 20260903183526 | 97 | 111 | 3.0 | 7.0 | 0.00 | 0.00 | 0.00 | 34 | 1018.2 |
| 20260903183047 | 97 | 286 | 1.0 | 7.0 | 0.00 | 0.00 | 0.00 | 35 | 1018.2 |
| 20260903182528 | 97 | 146 | 2.0 | 7.0 | 0.00 | 0.00 | 0.00 | 37 | 1018.3 |
| 20260903182025 | 97 | 101 | 3.0 | 7.0 | 0.00 | 0.00 | 0.00 | 34 | 1018.3 |
| 20260903181541 | 98 | 77 | 2.0 | 6.0 | 0.00 | 0.00 | 0.00 | 34 | 1018.3 |
| 20260903181023 | 97 | 103 | 1.0 | 6.0 | 0.00 | 0.00 | 0.00 | 37 | 1018.3 |
| 20260903180528 | 97 | 124 | 0.0 | 7.0 | 0.00 | 0.00 | 0.00 | 36 | 1018.4 |
| 20260903180049 | 96 | 97 | 2.0 | 7.0 | 0.00 | 0.00 | 0.00 | 37 | 1018.4 |
| 20260903175524 | 96 | 267 | 0.0 | 6.0 | 0.00 | 0.00 | 0.00 | 36 | 1018.4 |
| 20260903175025 | 95 | 94 | 2.0 | 8.0 | 0.00 | 0.00 | 0.00 | 40 | 1018.4 |
| 20260903174547 | 96 | 96 | 3.0 | 8.0 | 0.00 | 0.00 | 0.00 | 37 | 1018.5 |
| 20260903174028 | 95 | 98 | 2.0 | 5.0 | 0.00 | 0.00 | 0.00 | 39 | 1018.5 |
| 20260903173529 | 95 | 99 | 1.0 | 9.0 | 0.00 | 0.00 | 0.00 | 39 | 1018.6 |
| 20260903173044 | 95 | 93 | 4.0 | 9.0 | 0.00 | 0.00 | 0.00 | 38 | 1018.6 |
| 20260903172524 | 95 | 284 | 3.0 | 7.0 | 0.00 | 0.00 | 0.00 | 39 | 1018.6 |
| 20260903172026 | 96 | 105 | 3.0 | 7.0 | 0.00 | 0.00 | 0.00 | 36 | 1018.7 |
| 20260903171547 | 95 | 103 | 0.0 | 7.0 | 0.00 | 0.00 | 0.00 | 38 | 1018.9 |
| 20260903171027 | 95 | 96 | 2.0 | 7.0 | 0.00 | 0.00 | 0.00 | 37 | 1019.1 |
| 20260903170525 | 95 | 97 | 4.0 | 8.0 | 0.00 | 0.00 | 0.00 | 36 | 1019.1 |
| 20260903170047 | 96 | 117 | 3.0 | 8.0 | 0.00 | 0.00 | 0.00 | 36 | 1019.0 |
| 20260903165527 | 97 | 106 | 1.0 | 4.0 | 0.00 | 0.00 | 0.00 | 35 | 1019.1 |
| 20260903165029 | 96 | 94 | 1.0 | 4.0 | 0.00 | 0.00 | 0.00 | 36 | 1019.2 |
| 20260903164547 | 96 | 86 | 0.0 | 3.0 | 0.00 | 0.00 | 0.00 | 37 | 1019.1 |
| 20260903164026 | 95 | 104 | 1.0 | 3.0 | 0.00 | 0.00 | 0.00 | 37 | 1019.3 |
| 20260903163526 | 95 | 278 | 0.0 | 3.0 | 0.00 | 0.00 | 0.00 | 40 | 1019.3 |
| 20260903163046 | 95 | 310 | 0.0 | 3.0 | 0.00 | 0.00 | 0.00 | 40 | 1019.3 |
| 20260903162524 | 95 | 287 | 0.0 | 3.0 | 0.00 | 0.00 | 0.00 | 38 | 1019.3 |
| 20260903162024 | 94 | 74 | 0.0 | 3.0 | 0.00 | 0.00 | 0.00 | 44 | 1019.4 |
| 20260903161542 | 94 | 293 | 0.0 | 3.0 | 0.00 | 0.00 | 0.00 | 39 | 1019.4 |
| 20260903161021 | 92 | 0 | 0.0 | 4.0 | 0.00 | 0.00 | 0.00 | 43 | 1019.4 |
| 20260903160524 | 92 | 0 | 1.0 | 4.0 | 0.00 | 0.00 | 0.00 | 44 | 1019.4 |
| 20260903160047 | 92 | 300 | 2.0 | 4.0 | 0.00 | 0.00 | 0.00 | 41 | 1019.5 |
| 20260903155524 | 92 | 290 | 1.0 | 4.0 | 0.00 | 0.00 | 0.00 | 42 | 1019.5 |
| 20260903155024 | 92 | 297 | 1.0 | 4.0 | 0.00 | 0.00 | 0.00 | 41 | 1019.6 |
| 20260903154547 | 92 | 300 | 1.0 | 3.0 | 0.00 | 0.00 | 0.00 | 44 | 1019.6 |
| 20260903154027 | 93 | 292 | 1.0 | 2.0 | 0.00 | 0.00 | 0.00 | 41 | 1019.6 |
| 20260903153523 | 92 | 293 | 0.0 | 3.0 | 0.00 | 0.00 | 0.00 | 44 | 1019.6 |
| 20260903153045 | 91 | 293 | 0.0 | 3.0 | 0.00 | 0.00 | 0.00 | 45 | 1019.6 |
| 20260903152523 | 90 | 307 | 1.0 | 3.0 | 0.00 | 0.00 | 0.00 | 45 | 1019.6 |
| 20260903152023 | 90 | 0 | 0.0 | 3.0 | 0.00 | 0.00 | 0.00 | 46 | 1019.6 |
| 20260903151551 | 90 | 307 | 0.0 | 3.0 | 0.00 | 0.00 | 0.00 | 47 | 1019.6 |
| 20260903151021 | 90 | 7 | 0.0 | 3.0 | 0.00 | 0.00 | 0.00 | 47 | 1019.5 |
| 20260903150522 | 89 | 300 | 1.0 | 3.0 | 0.00 | 0.00 | 0.00 | 50 | 1019.6 |
| 20260903150106 | 89 | 294 | 1.0 | 3.0 | 0.00 | 0.00 | 0.00 | 47 | 1019.5 |
| 20260903145525 | 89 | 0 | 0.0 | 1.0 | 0.00 | 0.00 | 0.00 | 50 | 1019.6 |
| 20260903145024 | 88 | 321 | 0.0 | 4.0 | 0.00 | 0.00 | 0.00 | 53 | 1019.5 |
| 20260903144548 | 87 | 321 | 0.0 | 4.0 | 0.00 | 0.00 | 0.00 | 53 | 1019.5 |
| 20260903144027 | 87 | 306 | 1.0 | 4.0 | 0.00 | 0.00 | 0.00 | 51 | 1019.6 |
| 20260903143525 | 87 | 310 | 1.0 | 4.0 | 0.00 | 0.00 | 0.00 | 51 | 1019.5 |
| 20260903143045 | 88 | 273 | 0.0 | 2.0 | 0.00 | 0.00 | 0.00 | 50 | 1019.5 |
| 20260903142527 | 88 | 112 | 0.0 | 2.0 | 0.00 | 0.00 | 0.00 | 51 | 1019.6 |
| 20260903142027 | 87 | 285 | 0.0 | 3.0 | 0.00 | 0.00 | 0.00 | 52 | 1019.6 |
| 20260903141546 | 87 | 297 | 0.0 | 3.0 | 0.00 | 0.00 | 0.00 | 53 | 1019.6 |